sat.trackr.live / text

‹ back to catalog

STARLINK-5025

NORAD 53920 · 2022-119AL

PAYLOAD ACTIVE UNKNOWN

§ Identity

Operator
Country
US
Launch date
2022-09-24
Launch site
AFETR
Launch vehicle
Mass (kg)
RCS (m²)

Purposes: comms

External: N2YO · Heavens-Above · Gunter

§ Orbital elements

Epoch: 2026-09-20T23:07:16.086432Z

Period
94.01 min
Inclination
53.1583°
Eccentricity
0.0001263
Mean motion
15.31705306 rev/d
Perigee alt
469.9 km
Apogee alt
471.6 km
Semi-major
6,848.9 km
B*
2.6514e-5
RAAN
145.6852°
Arg perigee
88.2849°
Mean anomaly
271.8297°
Rev number
22,146

§ Raw data

STARLINK-50251 53920U 22119AL  26263.96338063  .00000458  00000+0  26514-4 0  99992 53920  53.1583 145.6852 0001263  88.2849 271.8297 15.31705306221460

JSON: /api/v1/satellites/53920 · /tle

For live sub-satellite position, see the globe view (requires WebGL).

§ Visibility from observer

Set your observer location to see the next 7 days of passes ≥ 10°. The values pass through the URL so the page stays shareable.

No JS? Fill the form by hand. The geolocation button needs JavaScript.